FW5249 Weather Reports


time (UTC)temp
C
wind
direction
speed
KPH
gust
KPH
rain 1hr
cm
rain 24hr
cm
rain mn
cm
humidity
%
barometer
mb
20260507201602 13 225 17.7 37.0 0.00 3.48 3.48 79 1001.9
20260507201058 13 270 24.1 37.0 0.00 3.48 3.48 78 1002.0
20260507200552 13 225 22.5 37.0 0.00 3.48 3.48 79 1001.8
20260507200030 13 225 17.7 37.0 0.00 3.48 3.48 79 1001.5
20260507195529 13 225 20.9 35.4 0.00 3.48 3.48 79 1001.7
20260507195019 13 225 20.9 37.0 0.00 3.48 3.48 78 1001.4
20260507194003 13 225 17.7 38.6 0.00 3.48 3.48 77 1000.9
20260507193440 13 225 14.5 38.6 0.00 3.48 3.48 75 1000.9
20260507192436 13 225 14.5 33.8 0.00 3.48 3.48 73 1000.2
20260507191402 14 180 16.1 33.8 0.00 3.48 3.48 73 1000.3
20260507190344 14 225 19.3 40.2 0.00 3.48 3.48 72 1001.2
20260507185337 14 225 17.7 35.4 0.00 3.48 3.48 71 1001.3
20260507184822 15 225 17.7 33.8 0.00 3.48 3.48 71 1001.7
20260507184259 15 225 14.5 33.8 0.00 3.48 3.48 70 1002.3
20260507183239 15 270 12.9 29.0 0.00 3.48 3.48 69 1002.9
20260507182738 15 225 17.7 33.8 0.00 3.48 3.48 68 1002.7
20260507182229 15 270 22.5 35.4 0.00 3.48 3.48 68 1002.7
20260507181704 15 225 17.7 37.0 0.00 3.48 3.48 68 1002.5
20260507181155 15 270 14.5 37.0 0.00 3.48 3.48 70 1002.6
20260507180707 15 270 12.9 30.6 0.00 3.48 3.48 68 1002.9
20260507180142 15 270 17.7 29.0 0.00 3.48 3.48 68 1003.4
20260507175633 14 270 12.9 27.4 0.00 3.48 3.48 70 1003.7
20260507175118 14 270 12.9 24.1 0.00 3.48 3.48 71 1003.9
20260507174625 14 270 11.3 19.3 0.00 3.48 3.48 72 1003.9
20260507174057 14 270 11.3 20.9 0.00 3.48 3.48 72 1004.1
20260507173550 14 270 8.0 22.5 0.00 3.48 3.48 72 1003.9
20260507173047 14 270 6.4 24.1 0.00 3.48 3.48 70 1003.8
20260507172528 14 270 9.7 24.1 0.00 3.48 3.48 71 1003.8
20260507172031 14 270 11.3 30.6 0.00 3.48 3.48 72 1003.6
20260507171524 14 225 9.7 30.6 0.00 3.48 3.48 72 1003.3
20260507170957 14 270 17.7 30.6 0.00 3.48 3.48 71 1002.8
20260507165942 14 225 8.0 24.1 0.00 3.48 3.48 73 1002.0
20260507165427 14 270 9.7 27.4 0.00 3.48 3.48 74 1002.2
20260507164918 14 270 12.9 27.4 0.00 3.48 3.48 74 1002.1
20260507164417 14 270 14.5 27.4 0.00 3.48 3.48 74 1002.5
20260507163347 13 270 17.7 25.7 0.00 3.48 3.48 73 1001.7
20260507160803 14 225 12.9 29.0 0.00 3.48 3.48 75 1002.9
20260507154719 14 270 12.9 38.6 0.00 3.48 3.48 75 1003.4
20260507154210 14 225 20.9 35.4 0.00 3.48 3.48 75 1002.9
20260507153707 14 270 20.9 37.0 0.00 3.48 3.48 74 1002.9
20260507153145 14 225 17.7 37.0 0.00 3.48 3.48 74 1002.9
20260507152650 14 225 9.7 40.2 0.00 3.48 3.48 76 1002.6
20260507152126 14 270 16.1 40.2 0.00 3.48 3.48 76 1002.7
20260507151614 14 225 29.0 40.2 0.00 3.48 3.48 75 1002.7
20260507151121 14 225 22.5 37.0 0.00 3.48 3.48 76 1002.3
20260507150552 14 225 12.9 37.0 0.00 3.48 3.48 76 1002.5
20260507150057 14 225 22.5 37.0 0.00 3.48 3.48 76 1002.4
20260507145023 14 270 17.7 33.8 0.00 3.48 3.48 76 1002.2
20260507144520 14 225 17.7 35.4 0.00 3.48 3.48 79 1002.4
20260507143454 14 270 17.7 29.0 0.00 3.48 3.48 78 1002.3
20260507142439 14 225 19.3 29.0 0.00 3.48 3.48 79 1002.4
20260507141932 14 270 12.9 33.8 0.00 3.48 3.48 80 1002.7
20260507141415 14 225 17.7 33.8 0.00 3.48 3.48 80 1002.7
20260507140911 14 225 22.5 30.6 0.00 3.48 3.48 80 1002.1
20260507140358 14 270 22.5 30.6 0.00 3.48 3.48 80 1002.5
20260507135843 15 270 17.7 33.8 0.00 3.48 3.48 81 1002.5
20260507135340 15 225 19.3 33.8 0.00 3.48 3.48 83 1002.9
20260507134827 15 225 11.3 24.1 0.00 3.48 3.48 85 1002.7
20260507134319 15 225 16.1 24.1 0.00 3.48 3.48 84 1002.6
20260507133814 15 225 12.9 24.1 0.00 3.48 3.48 84 1002.6
20260507133253 15 225 12.9 22.5 0.00 3.48 3.48 84 1002.1
20260507132745 15 225 12.9 22.5 0.00 3.48 3.48 84 1002.3
20260507132239 15 225 6.4 19.3 0.00 3.48 3.48 82 1002.1
20260507131721 15 225 6.4 27.4 0.00 3.48 3.48 81 1002.2
20260507131211 15 225 11.3 27.4 0.00 3.48 3.48 81 1002.5
20260507130717 15 225 12.9 20.9 0.00 3.48 3.48 81 1002.0
20260507130149 15 225 6.4 22.5 0.00 3.48 3.48 81 1002.3
20260507125641 15 270 9.7 22.5 0.00 3.48 3.48 83 1002.6
20260507125144 15 270 9.7 20.9 0.00 3.48 3.48 83 1002.1
20260507124622 15 225 12.9 20.9 0.00 3.48 3.48 82 1002.4
20260507124113 15 270 6.4 17.7 0.00 3.48 3.48 84 1002.6
20260507123608 15 270 4.8 17.7 0.00 3.48 3.48 85 1002.5
20260507123048 15 270 9.7 24.1 0.00 3.48 3.48 86 1002.6
20260507122542 15 270 11.3 24.1 0.00 3.48 3.48 86 1003.2
20260507122038 15 0 6.4 22.5 0.00 3.48 3.48 87 1003.0
20260507121519 15 180 6.4 24.1 0.00 3.48 3.48 87 1001.4
20260507121016 15 225 12.9 24.1 0.00 3.48 3.48 86 1000.5
20260507120509 15 270 9.7 16.1 0.00 3.48 3.48 86 1001.4
20260507115950 15 270 9.7 20.9 0.00 3.48 3.48 87 1001.4
20260507114940 15 225 9.7 24.1 0.00 3.48 3.48 88 1001.8
20260507113925 15 270 14.5 27.4 0.00 3.48 3.48 89 1001.7
20260507113404 15 225 17.7 27.4 0.00 3.48 3.48 89 1001.5
20260507112850 15 180 16.1 27.4 0.00 3.48 3.48 89 1000.9
20260507112339 15 225 14.5 24.1 0.00 3.48 3.48 90 1000.4
20260507111836 15 180 8.0 24.1 0.00 3.48 3.48 90 1000.7
20260507110806 15 180 8.0 19.3 0.00 3.48 3.48 90 1001.3
20260507110315 15 225 6.4 24.1 0.00 3.48 3.48 91 1001.5
20260507105746 15 225 11.3 32.2 0.00 3.48 3.48 90 1001.8
20260507104736 15 225 14.5 33.8 0.00 3.48 3.48 91 1000.3
20260507104214 15 225 14.5 30.6 0.00 3.48 3.48 92 1000.5
20260507103715 15 180 8.0 27.4 0.00 3.48 3.48 92 1000.1
20260507102644 15 225 9.7 17.7 0.00 3.48 3.48 92 1000.9
20260507101636 15 225 4.8 24.1 0.00 3.48 3.48 93 1000.7
20260507101117 15 270 6.4 24.1 0.00 3.48 3.48 93 1000.1
20260507100608 15 225 12.9 33.8 0.00 3.48 3.48 93 1000.6
20260507100118 15 270 9.7 33.8 0.00 3.48 3.48 93 1001.4
20260507095542 15 270 14.5 33.8 0.00 3.48 3.48 94 1001.2
20260507095052 15 225 16.1 33.8 0.00 3.48 3.48 93 1000.6
20260507094527 15 225 19.3 38.6 0.00 3.48 3.48 93 1000.5
20260507094013 15 180 14.5 38.6 0.00 3.48 3.48 93 1000.6
20260507093502 15 225 20.9 40.2 0.00 3.48 3.48 93 999.7
20260507093001 15 180 22.5 40.2 0.00 3.48 3.48 94 998.7
20260507092447 15 180 24.1 33.8 0.00 3.48 3.48 94 998.9
20260507091941 15 225 20.9 33.8 0.00 3.48 3.48 94 999.2
20260507091435 15 225 16.1 30.6 0.00 3.48 3.48 94 1000.4
20260507090911 15 225 17.7 27.4 0.00 3.48 3.48 94 1000.8
20260507090411 15 225 12.9 24.1 0.00 3.48 3.48 95 1000.8
20260507085347 16 225 12.9 22.5 0.00 3.48 3.48 96 1001.1
20260507084829 16 270 8.0 17.7 0.00 3.48 3.48 96 1001.0
20260507084335 16 225 9.7 17.7 0.00 3.48 3.48 96 1000.9
20260507083305 16 225 6.4 14.5 0.00 3.48 3.48 96 1001.2
20260507082759 16 270 6.4 14.5 0.00 3.48 3.48 96 1001.1
20260507082242 16 225 8.0 14.5 0.00 3.48 3.48 96 1000.6
20260507081735 16 225 8.0 12.9 0.00 3.48 3.48 96 1000.3
20260507081227 16 270 6.4 12.9 0.00 3.48 3.48 97 1000.5
20260507080711 16 225 8.0 12.9 0.03 3.48 3.48 97 1000.6
20260507080207 16 225 6.4 12.9 0.03 3.48 3.48 97 1000.8
20260507075657 16 225 3.2 12.9 0.03 3.48 3.48 97 1001.1
20260507075145 16 270 4.8 12.9 0.03 3.48 3.48 98 1001.4
20260507074635 16 270 6.4 12.9 0.03 3.48 3.48 98 1001.6
20260507074131 16 225 6.4 12.9 0.03 3.48 3.48 98 1001.6
20260507073614 16 270 6.4 12.9 0.03 3.48 3.48 98 1002.0
20260507073058 16 270 6.4 20.9 0.03 3.48 3.48 98 1001.8
20260507071032 16 225 12.9 20.9 0.03 3.48 3.48 98 1000.4
20260507070511 16 225 3.2 6.4 0.00 3.45 3.45 98 1000.4
20260507065959 16 270 3.2 4.8 0.00 3.45 3.45 98 1000.2
20260507065455 16 0 1.6 6.4 0.00 3.45 3.45 98 1000.2
20260507064940 16 315 3.2 6.4 0.00 3.45 3.45 98 1000.6
20260507063923 16 270 0.0 6.4 0.00 3.45 3.45 99 1000.4
20260507063413 16 270 3.2 6.4 0.03 3.45 3.45 98 1000.0
20260507062858 16 0 0.0 6.4 0.03 3.45 3.45 99 999.4
20260507062354 16 0 1.6 12.9 0.03 3.45 3.45 98 999.7
20260507061841 16 0 1.6 12.9 0.03 3.45 3.45 98 1000.0
20260507061332 16 0 3.2 12.9 0.05 3.45 3.45 98 1000.6
20260507060824 16 0 3.2 12.9 0.10 3.45 3.45 98 1000.4
20260507060308 16 0 6.4 12.9 0.15 3.45 3.45 98 999.4
20260507055759 16 180 3.2 12.9 0.15 3.45 3.45 99 997.9
20260507055254 16 90 6.4 12.9 0.18 3.45 3.45 98 998.7
20260507054737 17 0 3.2 6.4 0.18 3.45 3.45 99 1001.0
20260507054224 17 0 3.2 17.7 0.23 3.45 3.45 99 1001.2
20260507053730 16 90 3.2 17.7 0.28 3.45 3.45 99 1001.1
20260507053207 16 90 8.0 12.9 0.30 3.43 3.43 99 1001.0
20260507052658 16 180 6.4 11.3 0.30 3.43 3.43 99 1001.0
20260507051635 16 90 4.8 12.9 0.38 3.43 3.43 99 1002.2
20260507051123 16 45 3.2 12.9 0.61 3.35 3.35 99 1003.3
20260507050633 16 0 3.2 24.1 0.86 3.33 3.33 99 1003.1
20260507045600 16 180 17.7 27.4 1.47 3.30 3.30 98 1000.9
20260507045103 16 180 9.7 17.7 1.83 3.28 3.28 98 1001.1
20260507044544 16 180 4.8 22.5 2.62 3.25 3.28 99 1001.7
20260507044023 16 180 8.0 27.4 2.95 3.20 3.20 99 1001.2
20260507043004 16 180 16.1 33.8 3.12 3.12 3.12 98 999.8
20260507042455 16 180 12.9 33.8 3.10 3.10 3.10 98 1000.8
20260507041950 16 180 17.7 27.4 3.05 3.05 3.05 98 1000.7
20260507041439 16 135 6.4 35.4 3.00 3.00 3.00 98 1001.7
20260507040924 16 180 11.3 35.4 2.59 2.59 2.62 98 1000.9
20260507035913 17 135 17.7 41.8 2.11 2.11 2.18 98 1000.6
20260507035358 17 180 14.5 48.3 1.65 1.65 1.65 98 1001.2
20260507034848 18 180 33.8 48.3 1.35 1.35 1.35 97 1000.7
20260507034333 20 180 22.5 57.9 0.46 0.46 0.51 96 1001.5
20260507033319 24 270 29.0 54.7 0.00 0.00 0.00 81 1000.3
20260507032253 25 270 8.0 38.6 0.00 0.00 0.00 85 999.2
20260507031757 25 270 17.7 38.6 0.00 0.00 0.00 83 998.9
20260507031231 25 270 17.7 32.2 0.00 0.00 0.00 81 999.0
20260507030224 25 270 12.9 43.5 0.00 0.00 0.00 79 998.5
20260507025703 25 270 19.3 46.7 0.00 0.00 0.00 79 998.2
20260507025155 25 0 24.1 46.7 0.00 0.00 0.00 79 997.8
20260507024137 25 315 27.4 43.5 0.00 0.00 0.00 79 998.2
20260507023636 25 315 17.7 45.1 0.00 0.00 0.00 78 998.3
20260507023122 25 315 27.4 45.1 0.00 0.00 0.00 78 998.5
20260507022611 25 315 20.9 45.1 0.00 0.00 0.00 79 998.8
20260507021546 25 315 24.1 45.1 0.00 0.00 0.00 78 999.0
20260507021034 25 315 20.9 37.0 0.00 0.00 0.00 78 998.9
20260507020531 25 315 17.7 41.8 0.00 0.00 0.00 79 998.8
20260507020028 25 0 24.1 41.8 0.00 0.00 0.00 79 998.9
20260507015501 25 315 17.7 43.5 0.00 0.00 0.00 79 998.8
20260507014958 25 315 19.3 43.5 0.00 0.00 0.00 79 998.6
20260507014457 25 315 24.1 41.8 0.00 0.00 0.00 79 998.6
20260507013421 25 0 16.1 43.5 0.00 0.00 0.00 80 998.6
20260507012421 25 0 24.1 45.1 0.00 0.00 0.00 79 998.7
20260507011850 25 0 24.1 48.3 0.00 0.00 0.00 79 998.8
20260507011346 25 0 17.7 48.3 0.00 0.00 0.00 79 999.1
20260507010833 25 315 19.3 38.6 0.00 0.00 0.00 78 999.3
20260507010322 26 315 11.3 43.5 0.00 0.00 0.00 78 999.5
20260507005827 26 315 16.1 51.5 0.00 0.00 0.00 78 999.6
20260507005259 26 315 12.9 51.5 0.00 0.00 0.00 77 999.5
20260507004750 26 0 17.7 33.8 0.00 0.00 0.00 77 999.4
20260507004243 26 0 16.1 46.7 0.00 0.00 0.00 77 999.4
20260507003731 26 0 12.9 46.7 0.00 0.00 0.00 77 999.1
20260507003218 26 0 14.5 37.0 0.00 0.00 0.00 76 999.5
20260507002724 26 315 12.9 38.6 0.00 0.00 0.00 76 999.7
20260507002158 26 0 19.3 38.6 0.00 0.00 0.00 76 999.6
20260506235641 26 270 12.9 41.8 0.00 0.00 0.00 76 999.1
20260506235100 26 315 17.7 37.0 0.00 0.00 0.00 76 999.1
20260506234042 26 315 17.7 41.8 0.00 0.00 0.00 77 999.4
20260506233529 26 315 24.1 40.2 0.00 0.00 0.00 77 999.0
20260506233021 26 0 11.3 33.8 0.00 0.00 0.00 77 999.3
20260506232525 26 315 16.1 32.2 0.00 0.00 0.00 76 999.2
20260506232032 26 0 14.5 32.2 0.00 0.00 0.00 76 999.5
20260506230944 26 0 9.7 27.4 0.00 0.00 0.00 76 999.9
20260506230447 26 0 9.7 25.7 0.00 0.00 0.00 76 999.8
20260506225919 26 315 12.9 25.7 0.00 0.00 0.00 76 999.8
20260506225410 26 0 8.0 30.6 0.00 0.00 0.00 75 999.8
20260506224905 26 0 6.4 30.6 0.00 0.00 0.00 75 999.8
20260506224350 26 0 6.4 24.1 0.00 0.00 0.00 75 999.9
20260506223846 26 0 6.4 22.5 0.00 0.00 0.00 75 999.7
20260506223334 26 0 11.3 27.4 0.00 0.00 0.00 74 999.7
20260506222821 27 0 9.7 27.4 0.00 0.00 0.00 74 999.7
20260506221803 27 0 12.9 27.4 0.00 0.00 0.00 73 999.8
20260506221244 27 0 12.9 27.4 0.00 0.00 0.00 72 999.8
20260506220233 27 0 9.7 24.1 0.00 0.00 0.00 72 1000.0
20260506215717 27 0 11.3 24.1 0.00 0.00 0.00 71 1000.3
20260506215211 27 0 12.9 27.4 0.00 0.00 0.00 71 1000.2
20260506214654 27 45 9.7 27.4 0.00 0.00 0.00 71 1000.4
20260506214145 27 0 9.7 22.5 0.00 0.00 0.00 71 1000.4
20260506213639 27 0 12.9 17.7 0.00 0.00 0.00 71 1000.6
20260506213128 27 0 11.3 16.1 0.00 0.00 0.00 70 1000.7
20260506212108 28 0 8.0 22.5 0.00 0.00 0.00 70 1001.1
20260506211554 28 0 9.7 22.5 0.00 0.00 0.00 70 1000.7
20260506211042 28 0 12.9 17.7 0.00 0.00 0.00 69 1000.8
20260506210036 28 0 11.3 19.3 0.00 0.00 0.00 69 1001.1
20260506205518 28 0 6.4 17.7 0.00 0.00 0.00 69 1001.2
20260506204457 28 0 6.4 20.9 0.00 0.00 0.00 69 1001.4
20260506203441 28 0 6.4 22.5 0.00 0.00 0.00 68 1001.5
20260506202926 29 0 6.4 22.5 0.00 0.00 0.00 67 1001.5
20260506202416 29 0 6.4 19.3 0.00 0.00 0.00 67 1001.6